This is the latest recevied weather packets stored in our database for station/object K5IDL. If no packets are shown the sender has not sent any weather packets the latest 10 day(s).
| Time | Temp. | Humidity | Pressure | Rain* | Wind** | Luminosity | Snow |
|---|---|---|---|---|---|---|---|
| 1777996800 | 26.11° C | 72% | 1005.5 hPa | 0 mm | - | 215 W/m² | - |
| 1777996496 | 26.11° C | 72% | 1005.7 hPa | 0 mm | - | 259 W/m² | - |
| 1777996193 | 26.11° C | 72% | 1005.7 hPa | 0 mm | - | 275 W/m² | - |
| 1777995889 | 26.11° C | 72% | 1005.4 hPa | 0 mm | - | 222 W/m² | - |
| 1777995585 | 26.11° C | 73% | 1005.5 hPa | 0 mm | - | 238 W/m² | - |
| 1777995283 | 26.11° C | 72% | 1005.5 hPa | 0 mm | - | 278 W/m² | - |
| 1777994980 | 26.11° C | 73% | 1005.3 hPa | 0 mm | - | 267 W/m² | - |
| 1777994677 | 25.56° C | 75% | 1005.5 hPa | 0 mm | - | 283 W/m² | - |
| 1777994378 | 25° C | 75% | 1005.7 hPa | 0 mm | - | 173 W/m² | - |
| 1777994073 | 25.56° C | 75% | 1005.8 hPa | 0 mm | - | 150 W/m² | - |
| 1777993771 | 25.56° C | 75% | 1006 hPa | 0 mm | - | 131 W/m² | - |
| 1777993468 | 25.56° C | 74% | 1005.9 hPa | 0 mm | - | 130 W/m² | - |
| 1777993167 | 25.56° C | 74% | 1005.8 hPa | 0 mm | - | 146 W/m² | - |
| 1777992866 | 25.56° C | 75% | 1005.6 hPa | 0 mm | - | 292 W/m² | - |
| 1777992564 | 25.56° C | 75% | 1005.7 hPa | 0 mm | - | 261 W/m² | - |
| 1777992262 | 25.56° C | 74% | 1005.6 hPa | 0 mm | - | 213 W/m² | - |
| 1777991958 | 25° C | 76% | 1005.8 hPa | 0 mm | - | 187 W/m² | - |
| 1777991656 | 24.44° C | 77% | 1005.6 hPa | 0 mm | - | 209 W/m² | - |
| 1777991353 | 24.44° C | 78% | 1005.5 hPa | 0 mm | - | 125 W/m² | - |
| 1777991050 | 24.44° C | 78% | 1005.5 hPa | 0 mm | - | 144 W/m² | - |
| 1777990747 | 23.89° C | 79% | 1005.7 hPa | 0 mm | - | 147 W/m² | - |
| 1777990445 | 23.89° C | 79% | 1005.8 hPa | 0 mm | - | 171 W/m² | - |
| 1777989838 | 23.89° C | 79% | 1005.7 hPa | 0 mm | - | 108 W/m² | - |
| 1777989535 | 23.33° C | 80% | 1005.7 hPa | 0 mm | - | 118 W/m² | - |
| 1777989231 | 23.33° C | 80% | 1006 hPa | 0 mm | - | 99 W/m² | - |
* Rain latest hour (hover to see other rain measurements)
** Current wind speed in m/s (hover to see current wind gust speed)